Location: Vienna
(48.2082°N, 16.3738°E)
Time: 00:49:16
(UTC+02:00)

ISS - Pass Details

Date: 22 July 2018
Orbit: 402 x 408 km, 51.6° (Epoch: 16 July)

Event Time Altitude Azimuth Distance (km) Brightness Sun altitude
Rises 02:06:57 0° 291° (WNW) 2,329 0.1 -19.9°
Reaches altitude 10° 02:09:02 10° 293° (WNW) 1,468 -0.9 -19.8°
Maximum altitude 02:12:19 74° 18° (NNE) 427 -3.7 -19.6°
Drops below altitude 10° 02:15:37 10° 106° (ESE) 1,465 -1.0 -19.5°
Sets 02:17:42 0° 108° (ESE) 2,324 0.0 -19.4°
